User: anonymous   Login
Location: Unspecified
(0.0000°N, 0.0000°E)
Time: 22:32:37
(UTC+00:00)
Language:

USA 189 - Orbit

View from above orbital plane
View from above orbital plane
View from above satellite
View from above satellite

Ground track
Ground track

The orbit data is extracted from the following two-line orbital elements,

1 29242U 06024C   17089.81484595 0.00000000  00000-0  00000-0 0    03
2 29242   7.7991  44.6645 0005768 159.3243 200.7111  1.04021373    09
Epoch (UTC): 30 March 2017 19:33:22
Eccentricity: 0.0005768
inclination: 7.7991°
perigee height: 34743 km
apogee height: 34790 km
right ascension of ascending node: 44.6645°
argument of perigee: 159.3243°
revolutions per day: 1.04021373
mean anomaly at epoch: 200.7111°
orbit number at epoch: 0

The dashed part of the orbit path shows where the satellite is in the earth's shadow,  

DLR